Find Starlink 30882

NORAD ID: 58379 Int'l Des: 2023-178 Owner: SPXS Country: US Constellation: starlink operational
LEOCIRCULAR

現在のビュー

3D地球を読み込み中...

About Starlink 30882

Starlink 30882 (NORAD 58379) is a starlink constellation satellite (v2 mini) launched Nov 20, 2023 by SPXS of US. It operates in LEO, CIRCULAR orbit with a mass of 730.00 kg.

次回通過

Passes for default location (London). Set your location on the main map for personalized predictions.

高度履歴

Loading altitude history...

軌道要素

1 58379U 23178F 26235.59770322 .00007987 00000-0 24728-3 0 9993
2 58379 53.1615 302.4146 0000885 68.3923 291.7174 15.34396372155495
Epoch: Aug 23, 2026 • Age: 15 hours

現在のステータス

高度 469.8 km
遠地点 / 近地点 N/A
速度 7.63 km/s
衛星直下点 -23.29°S, 85.85°E
打ち上げ日 Nov 20, 2023
運用期間 2.7 years
タイプ internet

技術仕様

分類 Payload
質量 730.00 kg
乾燥質量 700.00 kg
総質量 730.00 kg
長さ 0.30 m
直径 4.10 m
スパン 29.00 m
形状 Box + pan
製造者 SPXS
バスタイプ Starlink V2M
フェーズステータス In Orbit
所有者/国 SPXS/US

Most Searched